{"data":{"norad_id":65826,"intl_designator":"2025-221D","name":"STARLINK-35381","alt_names":[],"object_type":"PAYLOAD","status":"ACTIVE","operator":null,"country":"US","launch_date":"2025-09-29","launch_site_code":"AFWTR","launch_vehicle":null,"mission":null,"orbit_class":"UNKNOWN","rcs_meters":null,"size_class":null,"mass_kg":null,"dimensions":null,"purposes":["comms"],"wikipedia_slug":null,"has_3d_model":false,"image_url":null,"decayed_at":null,"tle_current":{"epoch":"2026-05-25T05:06:52.621056Z","epoch_age_seconds":59777,"freshness":"FRESH","line1":"1 65826U 25221D   26145.21310904  .00288570  00000+0  83361-2 0  9999","line2":"2 65826  53.1598  92.6050 0000984  85.9444 274.1671 15.33988764 37807","mean_motion":15.33988764,"eccentricity":9.84e-5,"inclination_deg":53.1598,"raan_deg":92.605,"arg_perigee_deg":85.9444,"mean_anomaly_deg":274.1671,"bstar":0.0083361,"rev_number":3780,"period_min":93.87291705091,"perigee_km":463.25253433638,"apogee_km":464.59905229411,"semimajor_km":6842.0627933152,"source":"CELESTRAK","updated_at":"2026-05-25T13:38:20.942035Z"}}}